Location: Wells
(51.2093°N, 2.6446°W)
Time: 06:42:28
(UTC+01:00)

PCSat - Pass Details

Date: 17 March 2026
Orbit: 780 x 790 km, 67.1° (Epoch: 13 April)

Event Time Altitude Azimuth Distance (km) Brightness Sun altitude
Exits shadow 02:48:29 - 321° (NW) 2,558 12.3 -31.1°
Reaches altitude 10° 02:49:22 10° 328° (NNW) 2,364 12.1 -31.0°
Maximum altitude 02:52:25 15° 3° (N) 2,038 12.2 -30.7°
Drops below altitude 10° 02:55:27 10° 37° (NE) 2,365 12.9 -30.3°
Sets 02:59:01 0° 61° (ENE) 3,293 13.9 -29.9°
